Bartlesville, OK

5:54 AM CDT on October 20, 2017 (GMT -0500)
Bartlesville Municipal

Weather History for KBVO - August, 2013

Change the Weather History Date:

Sunday, August 4, 2013

  Actual Average Record
Temperature  
Mean Temperature 76 °F -  
Max Temperature 79 °F 92 °F 111 °F (2012)
Min Temperature 73 °F 66 °F 50 °F (1974)
Cooling Degree Days 11    
Growing Degree Days 26 (Base 50)    
Moisture  
Dew Point 75 °F    
Average Humidity 95    
Maximum Humidity 100    
Minimum Humidity 83    
Precipitation  
Precipitation 0.34 in - - ()
Sea Level Pressure  
Sea Level Pressure 30.04 in    
Wind  
Wind Speed 3 mph (ENE)    
Max Wind Speed 10 mph    
Max Gust Speed -    
Visibility 8 miles    
Events Rain , Thunderstorm    
Averages and records for this station are not official NWS values.
T = Trace of Precipitation, MM = Missing Value Source: NWS Daily Summary

Daily Weather History Graph

Daily Weather History Graph

Search for Another Location

Airport or City:

Trip Planner

Search our weather history database for the weather conditions in past years. The results will help you decide how hot, cold, wet, or windy it might be!

Date:

Astronomy

Aug. 04, 2013 Rise Set
Actual Time 6:32 AM CDT 8:27 PM CDT
Civil Twilight 6:04 AM CDT 8:55 PM CDT
Nautical Twilight 5:29 AM CDT 9:29 PM CDT
Astronomical Twilight 4:52 AM CDT 10:06 PM CDT
Moon 4:34 AM CDT (8/4) 6:51 PM CDT (8/4)
Length of Visible Light 14h 51m
Length of Day
13h 54m
Waning Crescent, 4% of the Moon is Illuminated
Aug 4
Waning Crescent
Aug 6
New
Aug 14
First Quarter
Aug 20
Full
Aug 28
Last Quarter

Hourly Weather History & Observations

Time (CDT) Temp. Dew Point Humidity Pressure Visibility Wind Dir Wind Speed Gust Speed Precip Events Conditions
12:53 AM 75.0 °F 75.0 °F 100% 30.03 in 7.0 mi Calm Calm - 0.02 in   Clear
1:53 AM 75.0 °F 73.9 °F 96% 29.99 in 10.0 mi SE 4.6 mph - 0.02 in   Partly Cloudy
2:53 AM 75.0 °F 73.9 °F 96% 29.99 in 10.0 mi Calm Calm - N/A   Clear
3:53 AM 75.0 °F 75.0 °F 100% 30.02 in 8.0 mi Calm Calm - N/A   Mostly Cloudy
4:53 AM 75.0 °F 73.9 °F 96% 30.02 in 8.0 mi Calm Calm - 0.01 in Rain Light Rain
5:53 AM 75.0 °F 73.9 °F 96% 30.04 in 6.0 mi Calm Calm - N/A   Overcast
6:51 AM 75.2 °F 75.2 °F 100% 30.09 in 5.0 mi Calm Calm - 0.01 in Thunderstorm Overcast
6:53 AM 75.0 °F 75.0 °F 100% 30.06 in 5.0 mi Calm Calm - 0.01 in Thunderstorm Overcast
7:06 AM 75.2 °F 75.2 °F 100% 30.08 in 5.0 mi NNE 5.8 mph - 0.02 in Rain Light Rain
7:21 AM 75.2 °F 75.2 °F 100% 30.10 in 9.0 mi West 3.5 mph - 0.02 in Thunderstorm Thunderstorm
7:33 AM 75.2 °F 75.2 °F 100% 30.11 in 2.5 mi Calm Calm - 0.07 in Rain , Thunderstorm Thunderstorms and Rain
7:41 AM 75.2 °F 75.2 °F 100% 30.10 in 1.0 mi NE 3.5 mph - 0.21 in Rain , Thunderstorm Heavy Thunderstorms and Rain
7:48 AM 75.2 °F 75.2 °F 100% 30.09 in 2.0 mi Calm Calm - 0.22 in Rain , Thunderstorm Light Thunderstorms and Rain
7:53 AM 75.0 °F 75.0 °F 100% 30.06 in 2.5 mi Calm Calm - 0.23 in Rain , Thunderstorm Light Thunderstorms and Rain
7:56 AM 75.2 °F 75.2 °F 100% 30.09 in 2.5 mi Variable 3.5 mph - 0.00 in Rain Rain
8:07 AM 75.2 °F 75.2 °F 100% 30.10 in 3.0 mi NNE 4.6 mph - 0.01 in Rain Light Rain
8:19 AM 75.2 °F 75.2 °F 100% 30.10 in 6.0 mi North 4.6 mph - 0.02 in Rain Light Rain
8:28 AM 75.2 °F 75.2 °F 100% 30.11 in 7.0 mi NNE 4.6 mph - 0.02 in   Overcast
8:53 AM 75.9 °F 75.9 °F 100% 30.08 in 7.0 mi East 6.9 mph - 0.03 in Rain Light Rain
9:07 AM 75.2 °F 75.2 °F 100% 30.11 in 7.0 mi Variable 5.8 mph - 0.00 in   Overcast
9:53 AM 75.9 °F 75.0 °F 97% 30.09 in 9.0 mi East 3.5 mph - 0.00 in   Overcast
10:13 AM 77.0 °F 75.2 °F 94% 30.11 in 7.0 mi East 3.5 mph - 0.00 in Rain Light Rain
10:29 AM 77.0 °F 75.2 °F 94% 30.11 in 9.0 mi East 5.8 mph - 0.00 in   Overcast
10:53 AM 77.0 °F 75.0 °F 94% 30.08 in 10.0 mi ENE 5.8 mph - 0.00 in   Overcast
11:53 AM 77.0 °F 75.0 °F 94% 30.06 in 9.0 mi East 4.6 mph - 0.01 in   Mostly Cloudy
12:01 PM 77.0 °F 75.2 °F 94% 30.08 in 9.0 mi East 4.6 mph - N/A   Mostly Cloudy
12:53 PM 78.1 °F 75.9 °F 93% 30.05 in 10.0 mi ENE 4.6 mph - N/A   Overcast
1:53 PM 79.0 °F 75.9 °F 90% 30.04 in 10.0 mi East 6.9 mph - N/A   Mostly Cloudy
2:53 PM 78.1 °F 75.0 °F 90% 30.03 in 10.0 mi East 8.1 mph - N/A   Overcast
3:15 PM 78.8 °F 75.2 °F 89% 30.05 in 8.0 mi East 5.8 mph - N/A   Mostly Cloudy
3:38 PM 77.0 °F 75.2 °F 94% 30.04 in 7.0 mi ESE 8.1 mph - 0.01 in Rain Light Rain
3:53 PM 77.0 °F 75.0 °F 94% 30.01 in 9.0 mi East 6.9 mph - 0.01 in   Mostly Cloudy
4:48 PM 77.0 °F 75.2 °F 94% 30.02 in 10.0 mi East 10.4 mph - N/A   Mostly Cloudy
4:53 PM 77.0 °F 75.0 °F 94% 29.99 in 10.0 mi East 8.1 mph - N/A   Mostly Cloudy
5:25 PM 78.8 °F 75.2 °F 89% 30.00 in 10.0 mi East 8.1 mph - N/A   Mostly Cloudy
5:39 PM 78.8 °F 75.2 °F 89% 30.00 in 10.0 mi East 6.9 mph - N/A   Scattered Clouds
5:53 PM 78.1 °F 75.0 °F 90% 29.97 in 10.0 mi East 6.9 mph - N/A   Scattered Clouds
6:12 PM 78.8 °F 75.2 °F 89% 29.99 in 10.0 mi East 8.1 mph - N/A   Mostly Cloudy
6:36 PM 78.8 °F 75.2 °F 89% 29.99 in 10.0 mi East 6.9 mph - N/A   Scattered Clouds
6:53 PM 78.1 °F 75.0 °F 90% 29.96 in 10.0 mi East 5.8 mph - N/A   Clear
7:28 PM 78.8 °F 73.4 °F 83% 30.00 in 10.0 mi East 6.9 mph - N/A   Mostly Cloudy
7:43 PM 77.0 °F 73.4 °F 89% 29.99 in 10.0 mi ENE 6.9 mph - N/A   Overcast
7:53 PM 77.0 °F 73.9 °F 90% 29.97 in 10.0 mi ENE 6.9 mph - N/A   Overcast
8:53 PM 75.9 °F 73.9 °F 94% 29.96 in 10.0 mi Variable 5.8 mph - N/A   Mostly Cloudy
9:30 PM 75.2 °F 73.4 °F 94% 30.00 in 10.0 mi ENE 4.6 mph - N/A   Scattered Clouds
9:51 PM 75.2 °F 73.4 °F 94% 30.00 in 10.0 mi Calm Calm - N/A   Mostly Cloudy
9:53 PM 75.0 °F 73.0 °F 94% 29.97 in 10.0 mi ENE 3.5 mph - N/A   Mostly Cloudy
10:05 PM 73.4 °F 73.4 °F 100% 30.00 in 10.0 mi East 4.6 mph - N/A   Scattered Clouds
10:53 PM 73.9 °F 73.0 °F 97% 29.96 in 10.0 mi Calm Calm - N/A   Scattered Clouds
11:53 PM 73.9 °F 73.0 °F 97% 29.96 in 10.0 mi Calm Calm - N/A   Mostly Cloudy